YO2LDK-13 Weather Reports


time (UTC)temp
C
wind
direction
speed
KPH
gust
KPH
rain 1hr
cm
rain 24hr
cm
rain mn
cm
humidity
%
barometer
mb
20260507060519 16 24 0.0 0.0 0.00 0.00 0.00 95 1004.4
20260507060020 16 6 0.0 0.0 0.00 0.00 0.00 95 1004.7
20260507055521 16 42 0.0 0.0 0.00 0.00 0.00 94 1004.4
20260507055019 16 42 0.0 0.0 0.00 0.00 0.00 94 1004.4
20260507054519 16 42 0.0 0.0 0.00 0.00 0.00 92 1004.4
20260507054020 16 36 0.0 0.0 0.00 0.00 0.00 90 1004.4
20260507053520 16 74 3.2 3.2 0.00 0.00 0.00 90 1004.1
20260507053019 16 270 0.0 0.0 0.00 0.00 0.00 90 1004.1
20260507052520 16 270 0.0 0.0 0.00 0.00 0.00 90 1004.1
20260507052019 16 270 0.0 0.0 0.00 0.00 0.00 90 1004.1
20260507051520 16 270 0.0 0.0 0.00 0.00 0.00 89 1004.1
20260507051022 16 48 0.0 0.0 0.00 0.00 0.00 88 1003.7
20260507050519 16 24 0.0 0.0 0.00 0.00 0.00 88 1003.7
20260507050020 16 12 0.0 0.0 0.00 0.00 0.00 88 1003.7
20260507045519 16 12 0.0 0.0 0.00 0.00 0.00 88 1003.7
20260507045019 16 12 0.0 0.0 0.00 0.00 0.00 88 1003.4
20260507044519 16 6 0.0 0.0 0.00 0.00 0.00 88 1003.4
20260507044021 16 18 0.0 0.0 0.00 0.00 0.00 88 1003.0
20260507043520 16 18 0.0 0.0 0.00 0.00 0.00 88 1003.4
20260507043019 16 18 0.0 0.0 0.00 0.00 0.00 88 1003.4
20260507042519 16 18 0.0 0.0 0.00 0.00 0.00 88 1003.0
20260507042019 16 30 0.0 0.0 0.00 0.00 0.00 88 1003.0
20260507041519 16 30 0.0 0.0 0.00 0.00 0.00 88 1003.0
20260507041020 16 30 0.0 0.0 0.00 0.00 0.00 88 1003.0
20260507040521 16 30 0.0 0.0 0.00 0.00 0.00 88 1002.7
20260507040020 16 30 0.0 0.0 0.00 0.00 0.00 88 1003.0
20260507035520 15 30 0.0 0.0 0.00 0.00 0.00 88 1002.7
20260507035021 15 30 0.0 0.0 0.00 0.00 0.00 88 1002.7
20260507034519 15 30 0.0 0.0 0.00 0.00 0.00 88 1003.0
20260507034020 15 30 0.0 0.0 0.00 0.00 0.00 87 1002.7
20260507033520 16 30 0.0 0.0 0.00 0.00 0.00 87 1002.4
20260507033019 16 30 0.0 0.0 0.00 0.00 0.00 87 1002.4
20260507032520 16 30 0.0 0.0 0.00 0.00 0.00 86 1002.0
20260507032019 16 30 0.0 0.0 0.00 0.00 0.00 86 1002.4
20260507031522 16 30 0.0 0.0 0.00 0.00 0.00 85 1002.4
20260507031019 16 30 0.0 0.0 0.00 0.00 0.00 85 1002.4
20260507030519 16 30 0.0 0.0 0.00 0.00 0.00 85 1002.4
20260507030019 16 36 0.0 0.0 0.00 0.00 0.00 85 1002.4
20260507025520 15 36 0.0 0.0 0.00 0.00 0.00 85 1002.4
20260507025020 15 36 0.0 0.0 0.00 0.00 0.00 85 1002.0
20260507024519 15 36 0.0 0.0 0.00 0.00 0.00 85 1002.4
20260507024019 15 36 0.0 0.0 0.00 0.00 0.00 85 1002.4
20260507023520 15 36 0.0 0.0 0.00 0.00 0.00 85 1002.0
20260507023023 15 36 0.0 0.0 0.00 0.00 0.00 84 1002.0
20260507022520 15 36 0.0 0.0 0.00 0.00 0.00 84 1002.0
20260507022020 15 78 0.0 0.0 0.00 0.00 0.00 84 1001.7
20260507021520 15 78 0.0 0.0 0.00 0.00 0.00 84 1001.7
20260507021019 15 78 0.0 0.0 0.00 0.00 0.00 83 1001.7
20260507020520 15 78 0.0 0.0 0.00 0.00 0.00 84 1001.7
20260507020019 15 78 0.0 0.0 0.00 0.00 0.00 84 1002.0
20260507015520 15 78 0.0 0.0 0.00 0.00 0.00 84 1001.7
20260507015019 15 78 0.0 0.0 0.00 0.00 0.00 83 1001.7
20260507014519 15 78 0.0 0.0 0.00 0.00 0.00 83 1002.0
20260507014019 15 78 0.0 0.0 0.00 0.00 0.00 82 1002.0
20260507013520 15 78 0.0 0.0 0.00 0.00 0.00 82 1002.0
20260507013020 15 78 0.0 0.0 0.00 0.00 0.00 82 1001.7
20260507012520 16 78 0.0 0.0 0.00 0.00 0.00 81 1001.7
20260507012019 16 78 0.0 0.0 0.00 0.00 0.00 81 1001.7
20260507011520 16 78 0.0 0.0 0.00 0.00 0.00 81 1001.7
20260507011020 16 78 0.0 0.0 0.00 0.00 0.00 80 1001.7
20260507010519 16 78 0.0 0.0 0.00 0.00 0.00 79 1001.7
20260507010020 15 78 0.0 0.0 0.00 0.00 0.00 79 1001.7
20260507005519 15 78 0.0 0.0 0.00 0.00 0.00 78 1001.4
20260507005019 15 78 0.0 0.0 0.00 0.00 0.00 78 1001.4
20260507004520 15 78 0.0 0.0 0.00 0.00 0.00 78 1001.4
20260507004020 15 78 0.0 0.0 0.00 0.00 0.00 78 1001.4
20260507003519 15 78 0.0 0.0 0.00 0.00 0.00 78 1001.4
20260507003022 15 78 0.0 0.0 0.00 0.00 0.00 77 1001.0
20260507002521 16 78 0.0 0.0 0.00 0.00 0.00 76 1001.0
20260507002019 16 78 0.0 0.0 0.00 0.00 0.00 77 1000.7
20260507001519 16 78 0.0 0.0 0.00 0.00 0.00 76 1001.0
20260507001019 16 78 0.0 0.0 0.00 0.00 0.00 76 1000.7
20260507000522 16 78 0.0 0.0 0.00 0.00 0.00 75 1000.7
20260507000020 16 78 0.0 0.0 0.00 0.00 0.00 74 1001.0
20260506235519 16 78 0.0 0.0 0.00 0.00 0.00 74 1000.7
20260506235020 16 78 0.0 0.0 0.00 0.00 0.00 72 1000.7
20260506234523 16 78 0.0 0.0 0.00 0.00 0.00 72 1000.7
20260506234020 17 78 0.0 0.0 0.00 0.00 0.00 72 1001.0
20260506233519 17 78 0.0 0.0 0.00 0.00 0.00 71 1000.7
20260506233020 17 78 0.0 0.0 0.00 0.00 0.00 71 1001.0
20260506232519 17 78 0.0 0.0 0.00 0.00 0.00 70 1000.7
20260506232019 17 78 0.0 0.0 0.00 0.00 0.00 69 1000.7
20260506231519 17 78 0.0 0.0 0.00 0.00 0.00 68 1000.7
20260506231020 18 78 0.0 0.0 0.00 0.00 0.00 68 1000.7
20260506230519 18 78 0.0 0.0 0.00 0.00 0.00 67 1001.0
20260506230020 18 78 0.0 0.0 0.00 0.00 0.00 66 1001.0
20260506225520 18 78 0.0 0.0 0.00 0.00 0.00 65 1001.0
20260506225020 18 78 0.0 0.0 0.00 0.00 0.00 64 1001.0
20260506224521 18 78 0.0 0.0 0.00 0.00 0.00 63 1001.4
20260506224019 19 78 0.0 0.0 0.00 0.00 0.00 62 1001.7
20260506223519 18 78 0.0 0.0 0.00 0.00 0.00 60 1001.4
20260506223019 18 66 0.0 0.0 0.00 0.00 0.00 59 1001.7
20260506222521 17 30 1.6 1.6 0.00 0.00 0.00 59 1001.0
20260506222019 16 48 3.2 3.2 0.00 0.00 0.00 66 1001.4
20260506221520 16 24 0.0 0.0 0.00 0.00 0.00 67 1000.7
20260506221021 16 288 0.0 0.0 0.00 0.00 0.00 68 1000.7
20260506220520 16 288 0.0 0.0 0.00 0.00 0.00 69 1000.7
20260506220019 16 288 0.0 0.0 0.00 0.00 0.00 69 1000.3
20260506215519 16 288 0.0 0.0 0.00 0.00 0.00 68 1000.0
20260506215019 16 292 0.0 0.0 0.00 0.00 0.00 68 1000.3
20260506214519 16 288 0.0 0.0 0.00 0.00 0.00 69 1000.3
20260506214019 16 288 0.0 0.0 0.00 0.00 0.00 68 1000.0
20260506213519 16 288 0.0 0.0 0.00 0.00 0.00 69 1000.0
20260506213019 16 288 0.0 0.0 0.00 0.00 0.00 70 1000.3
20260506212519 16 292 0.0 0.0 0.00 0.00 0.00 70 1000.7
20260506212019 16 288 0.0 0.0 0.00 0.00 0.00 70 1000.3
20260506211519 16 288 0.0 0.0 0.00 0.00 0.00 70 1000.3
20260506211020 16 292 0.0 0.0 0.00 0.00 0.00 70 1000.3
20260506210519 16 292 0.0 0.0 0.00 0.00 0.00 70 1000.3
20260506210019 16 292 0.0 0.0 0.00 0.00 0.00 69 1000.3
20260506205520 16 288 0.0 0.0 0.00 0.00 0.00 68 1000.7
20260506205019 16 288 0.0 0.0 0.00 0.00 0.00 68 1000.3
20260506204520 16 288 0.0 0.0 0.00 0.00 0.00 67 1000.7
20260506204019 16 292 0.0 0.0 0.00 0.00 0.00 67 1000.7
20260506203520 16 292 0.0 0.0 0.00 0.00 0.00 67 1000.7
20260506203019 16 288 0.0 0.0 0.00 0.00 0.00 66 1000.3
20260506202519 16 288 0.0 0.0 0.00 0.00 0.00 65 1000.7
20260506202019 17 288 0.0 0.0 0.00 0.00 0.00 64 1000.7
20260506201520 17 288 0.0 0.0 0.00 0.00 0.00 64 1000.7
20260506201020 17 288 0.0 0.0 0.00 0.00 0.00 63 1000.3
20260506200520 17 292 0.0 0.0 0.00 0.00 0.00 64 1000.3
20260506200020 17 292 0.0 0.0 0.00 0.00 0.00 64 1000.3
20260506195520 17 292 0.0 0.0 0.00 0.00 0.00 64 1000.3
20260506195020 17 288 0.0 0.0 0.00 0.00 0.00 63 1000.3
20260506194526 17 288 0.0 0.0 0.00 0.00 0.00 62 1000.3
20260506194021 17 288 0.0 0.0 0.00 0.00 0.00 62 1000.3
20260506193521 17 293 0.0 0.0 0.00 0.00 0.00 63 1000.3
20260506193021 17 293 0.0 0.0 0.00 0.00 0.00 62 1000.3
20260506192523 17 293 0.0 0.0 0.00 0.00 0.00 61 1000.0
20260506192022 17 293 0.0 0.0 0.00 0.00 0.00 61 1000.3
20260506191523 18 293 0.0 0.0 0.00 0.00 0.00 61 1000.3
20260506191021 18 293 0.0 0.0 0.00 0.00 0.00 61 1000.0
20260506190520 18 293 0.0 0.0 0.00 0.00 0.00 60 1000.0
20260506190020 18 293 0.0 0.0 0.00 0.00 0.00 60 1000.0
20260506185520 18 293 0.0 0.0 0.00 0.00 0.00 59 1000.3
20260506185020 18 293 0.0 0.0 0.00 0.00 0.00 59 1000.0
20260506184519 18 293 0.0 0.0 0.00 0.00 0.00 58 1000.3
20260506184019 18 293 0.0 0.0 0.00 0.00 0.00 56 1000.3
20260506183520 19 293 0.0 0.0 0.00 0.00 0.00 55 1000.0
20260506183019 19 293 0.0 0.0 0.00 0.00 0.00 54 1000.0
20260506182520 20 293 0.0 0.0 0.00 0.00 0.00 52 1000.0
20260506182020 20 293 0.0 0.0 0.00 0.00 0.00 51 1000.0
20260506181521 20 293 0.0 0.0 0.00 0.00 0.00 50 1000.0
20260506181019 21 293 0.0 0.0 0.00 0.00 0.00 48 1000.0
20260506180521 21 293 0.0 0.0 0.00 0.00 0.00 46 1000.0
20260506180022 21 293 0.0 0.0 0.00 0.00 0.00 47 1000.0
20260506175521 22 293 0.0 0.0 0.00 0.00 0.00 45 1000.0
20260506175019 22 293 0.0 0.0 0.00 0.00 0.00 45 1000.0
20260506174521 22 293 0.0 0.0 0.00 0.00 0.00 44 1000.0
20260506174019 23 293 0.0 0.0 0.00 0.00 0.00 42 999.7
20260506173521 23 293 0.0 0.0 0.00 0.00 0.00 41 999.7
20260506173021 23 293 0.0 0.0 0.00 0.00 0.00 40 999.7
20260506172519 23 293 0.0 0.0 0.00 0.00 0.00 40 999.7
20260506172021 24 293 0.0 0.0 0.00 0.00 0.00 40 999.7
20260506171520 24 293 0.0 0.0 0.00 0.00 0.00 39 1000.0
20260506171020 25 293 0.0 0.0 0.00 0.00 0.00 37 999.7
20260506170520 25 293 0.0 0.0 0.00 0.00 0.00 37 999.7
20260506170020 25 293 0.0 0.0 0.00 0.00 0.00 37 999.7
20260506165520 25 293 0.0 0.0 0.00 0.00 0.00 37 999.7
20260506165020 25 293 0.0 0.0 0.00 0.00 0.00 35 999.7
20260506164520 25 293 0.0 0.0 0.00 0.00 0.00 35 999.7
20260506164019 25 294 0.0 0.0 0.00 0.00 0.00 34 1000.0
20260506163520 25 294 0.0 0.0 0.00 0.00 0.00 34 999.7
20260506163021 26 294 0.0 0.0 0.00 0.00 0.00 34 999.7
20260506162522 26 294 0.0 0.0 0.00 0.00 0.00 34 999.7
20260506162020 26 276 0.0 0.0 0.00 0.00 0.00 34 999.7
20260506161520 26 294 3.2 3.2 0.00 0.00 0.00 34 1000.0
20260506161022 26 294 0.0 0.0 0.00 0.00 0.00 34 1000.0
20260506160522 26 294 3.2 3.2 0.00 0.00 0.00 33 1000.0
20260506160021 26 288 3.2 3.2 0.00 0.00 0.00 33 1000.0
20260506155520 26 288 1.6 1.6 0.00 0.00 0.00 33 1000.0
20260506155019 25 288 3.2 3.2 0.00 0.00 0.00 34 1000.0
20260506154523 26 288 0.0 0.0 0.00 0.00 0.00 33 1000.0
20260506154019 26 67 0.0 0.0 0.00 0.00 0.00 33 1000.0
20260506153521 26 68 0.0 0.0 0.00 0.00 0.00 33 1000.3
20260506153021 25 292 3.2 3.2 0.00 0.00 0.00 33 1000.3
20260506152522 25 288 4.8 4.8 0.00 0.00 0.00 34 1000.0
20260506152020 25 283 3.2 3.2 0.00 0.00 0.00 33 1000.3
20260506151520 26 295 1.6 1.6 0.00 0.00 0.00 33 1000.3
20260506151019 26 288 0.0 0.0 0.00 0.00 0.00 32 1000.3
20260506150521 26 270 6.4 6.4 0.00 0.00 0.00 32 1000.3
20260506150022 26 288 3.2 3.2 0.00 0.00 0.00 32 1000.7
20260506145520 26 294 3.2 3.2 0.00 0.00 0.00 33 1000.3
20260506145020 26 288 0.0 0.0 0.00 0.00 0.00 33 1000.3
20260506144520 26 277 6.4 6.4 0.00 0.00 0.00 33 1000.7
20260506144019 26 294 3.2 3.2 0.00 0.00 0.00 32 1000.7
20260506143521 25 288 0.0 0.0 0.00 0.00 0.00 33 1000.7
20260506142531 26 283 1.6 1.6 0.00 0.00 0.00 33 1000.7
20260506142019 26 276 3.2 3.2 0.00 0.00 0.00 33 1000.7
20260506141520 26 282 4.8 6.4 0.00 0.00 0.00 34 1000.7
20260506141022 26 258 0.0 0.0 0.00 0.00 0.00 34 1000.7
20260506140520 26 276 6.4 6.4 0.00 0.00 0.00 35 1000.7
20260506140021 26 293 0.0 0.0 0.00 0.00 0.00 34 1001.0
20260506135520 26 278 4.8 4.8 0.00 0.00 0.00 34 1001.0
20260506135021 26 288 1.6 1.6 0.00 0.00 0.00 33 1001.0
20260506134519 26 288 0.0 0.0 0.00 0.00 0.00 34 1001.0
20260506134023 26 271 0.0 0.0 0.00 0.00 0.00 34 1001.0
20260506133520 26 264 3.2 3.2 0.00 0.00 0.00 33 1001.0
20260506133020 26 294 4.8 6.4 0.00 0.00 0.00 35 1001.4
20260506132109 27 299 3.2 3.2 0.00 0.00 0.00 33 1001.0
20260506131522 26 22 0.0 0.0 0.00 0.00 0.00 33 1001.4
20260506131019 26 82 1.6 1.6 0.00 0.00 0.00 35 1001.4
20260506130520 26 30 0.0 0.0 0.00 0.00 0.00 36 1001.7
20260506130022 25 36 0.0 0.0 0.00 0.00 0.00 36 1001.4
20260506125520 26 53 3.2 3.2 0.00 0.00 0.00 35 1001.7
20260506125020 27 288 3.2 3.2 0.00 0.00 0.00 35 1001.7
20260506124521 26 39 3.2 3.2 0.00 0.00 0.00 35 1001.4
20260506124022 26 282 0.0 0.0 0.00 0.00 0.00 35 1001.7
20260506123519 26 282 1.6 1.6 0.00 0.00 0.00 35 1001.7
20260506123020 25 59 4.8 4.8 0.00 0.00 0.00 37 1002.0
20260506122519 26 48 1.6 1.6 0.00 0.00 0.00 35 1001.7
20260506122019 26 282 3.2 3.2 0.00 0.00 0.00 37 1002.0
20260506121520 26 282 4.8 6.4 0.00 0.00 0.00 38 1002.0
20260506121019 26 48 0.0 0.0 0.00 0.00 0.00 37 1002.0
20260506120520 26 294 3.2 3.2 0.00 0.00 0.00 36 1002.0
20260506120019 26 288 3.2 3.2 0.00 0.00 0.00 37 1002.0
20260506115520 25 300 0.0 0.0 0.00 0.00 0.00 38 1002.0
20260506115021 26 234 0.0 0.0 0.00 0.00 0.00 38 1002.0
20260506114521 25 285 0.0 0.0 0.00 0.00 0.00 39 1002.4
20260506114022 25 306 3.2 3.2 0.00 0.00 0.00 38 1002.0
20260506113523 25 288 0.0 0.0 0.00 0.00 0.00 38 1002.4
20260506113020 25 292 8.0 9.7 0.00 0.00 0.00 39 1002.4
20260506112521 25 276 3.2 3.2 0.00 0.00 0.00 40 1002.4
20260506112021 25 288 3.2 3.2 0.00 0.00 0.00 39 1002.4
20260506111522 25 282 0.0 0.0 0.00 0.00 0.00 40 1002.4
20260506111021 25 304 4.8 4.8 0.00 0.00 0.00 39 1002.4
20260506110519 25 300 0.0 0.0 0.00 0.00 0.00 40 1002.7
20260506110021 25 304 1.6 1.6 0.00 0.00 0.00 39 1002.7
20260506105037 24 282 4.8 4.8 0.00 0.00 0.00 41 1002.4
20260506104522 25 278 6.4 6.4 0.00 0.00 0.00 39 1002.7
20260506104021 25 288 0.0 0.0 0.00 0.00 0.00 38 1003.0
20260506103521 25 279 0.0 0.0 0.00 0.00 0.00 39 1003.0
20260506103024 25 309 0.0 0.0 0.00 0.00 0.00 39 1003.0
20260506102521 25 276 3.2 3.2 0.00 0.00 0.00 41 1003.0
20260506102019 25 312 3.2 3.2 0.00 0.00 0.00 39 1003.0
20260506101521 25 288 3.2 3.2 0.00 0.00 0.00 41 1003.0
20260506101021 23 54 1.6 1.6 0.00 0.00 0.00 42 1003.0
20260506100521 23 77 3.2 3.2 0.00 0.00 0.00 44 1003.0
20260506100020 24 288 3.2 3.2 0.00 0.00 0.00 40 1003.4
20260506095520 24 348 3.2 3.2 0.00 0.00 0.00 41 1003.4
20260506095020 23 42 0.0 0.0 0.00 0.00 0.00 43 1003.4
20260506094520 23 294 3.2 3.2 0.00 0.00 0.00 44 1003.0
20260506094019 22 278 0.0 0.0 0.00 0.00 0.00 44 1003.4
20260506093520 23 266 6.4 8.0 0.00 0.00 0.00 44 1003.4
20260506093021 23 294 3.2 3.2 0.00 0.00 0.00 43 1003.4
20260506092521 22 294 0.0 0.0 0.00 0.00 0.00 45 1003.7
20260506092020 23 312 0.0 0.0 0.00 0.00 0.00 45 1003.4
20260506091521 23 23 0.0 0.0 0.00 0.00 0.00 44 1003.4
20260506091021 23 294 0.0 0.0 0.00 0.00 0.00 43 1003.7
20260506090519 22 234 3.2 3.2 0.00 0.00 0.00 45 1003.7
20260506090021 23 288 6.4 8.0 0.00 0.00 0.00 45 1003.4
20260506085519 23 300 0.0 0.0 0.00 0.00 0.00 45 1003.7
20260506085019 23 272 6.4 8.0 0.00 0.00 0.00 45 1003.7
20260506084519 22 258 0.0 0.0 0.00 0.00 0.00 44 1003.4
20260506084020 22 300 0.0 0.0 0.00 0.00 0.00 47 1003.4
20260506083519 22 299 3.2 3.2 0.00 0.00 0.00 45 1003.4
20260506083019 21 282 0.0 0.0 0.00 0.00 0.00 47 1003.7
20260506082519 22 294 3.2 3.2 0.00 0.00 0.00 45 1003.7
20260506082020 22 299 0.0 0.0 0.00 0.00 0.00 47 1003.7
20260506081520 22 299 0.0 0.0 0.00 0.00 0.00 45 1003.4
20260506081019 22 42 3.2 3.2 0.00 0.00 0.00 44 1003.7
20260506080522 22 305 1.6 1.6 0.00 0.00 0.00 44 1003.4
20260506073520 21 288 3.2 3.2 0.00 0.00 0.00 48 1003.7
20260506073019 20 288 0.0 0.0 0.00 0.00 0.00 48 1003.7
20260506072520 20 288 3.2 3.2 0.00 0.00 0.00 50 1003.7
20260506072019 20 336 3.2 3.2 0.00 0.00 0.00 49 1003.7
20260506071519 20 293 0.0 0.0 0.00 0.00 0.00 51 1003.7
20260506071019 20 288 1.6 1.6 0.00 0.00 0.00 51 1003.7
20260506070521 19 294 4.8 4.8 0.00 0.00 0.00 52 1003.7
20260506062019 17 294 0.0 0.0 0.00 0.00 0.00 60 1003.7
20260506061520 17 276 0.0 0.0 0.00 0.00 0.00 62 1003.7
20260506061019 17 288 3.2 3.2 0.00 0.00 0.00 63 1003.7